Location: TAAA CAC
(31.8680°N, 109.5150°W)
Time: 23:40:22
(UTC-07:00)

Hubble Space Telescope - Pass Details

Date: 24 February 2024
Orbit: 513 x 517 km, 28.5° (Epoch: 21 April)

Event Time Altitude Azimuth Distance (km) Brightness Sun altitude
Rises 19:08:53 0° 236° (SW) 2,626 5.4 -12.9°
Reaches altitude 10° 19:11:19 10° 225° (SW) 1,740 4.1 -13.4°
Maximum altitude 19:14:50 29° 164° (SSE) 964 1.9 -14.1°
Enters shadow 19:16:38 20° 121° (ESE) 1,217 2.1 -14.5°
